K4SGK Weather Reports


time (UTC)temp
C
wind
direction
speed
KPH
gust
KPH
rain 1hr
cm
rain 24hr
cm
rain mn
cm
humidity
%
barometer
mb
20260503231004 16 213 8.0 14.5 0.00 0.00 0.00 33 1013.5
20260503230004 16 274 8.0 14.5 0.00 0.00 0.00 35 1013.6
20260503224004 16 232 6.4 12.9 0.00 0.00 0.00 37 1013.7
20260503223004 16 261 8.0 11.3 0.00 0.00 0.00 35 1013.9
20260503221004 17 262 8.0 19.3 0.00 0.00 0.00 36 1014.1
20260503215004 16 254 8.0 12.9 0.00 0.00 0.00 40 1014.1
20260503214004 17 308 4.8 11.3 0.00 0.00 0.00 39 1014.2
20260503213004 17 254 6.4 14.5 0.00 0.00 0.00 37 1014.2
20260503212004 17 233 6.4 12.9 0.00 0.00 0.00 41 1014.6
20260503211004 17 249 6.4 11.3 0.00 0.00 0.00 36 1014.8
20260503210004 17 265 6.4 12.9 0.00 0.00 0.00 36 1015.1
20260503205004 17 271 9.7 16.1 0.00 0.00 0.00 34 1015.3
20260503203003 16 328 3.2 24.1 0.00 0.00 0.00 36 1015.5
20260503202004 16 280 4.8 14.5 0.00 0.00 0.00 35 1015.8
20260503201003 16 265 8.0 16.1 0.00 0.00 0.00 34 1016.1
20260503200004 16 247 9.7 19.3 0.00 0.00 0.00 34 1016.3
20260503194004 16 265 8.0 14.5 0.00 0.00 0.00 41 1016.6
20260503193004 16 256 8.0 19.3 0.00 0.00 0.00 38 1016.6
20260503192004 16 251 8.0 14.5 0.00 0.00 0.00 38 1016.8
20260503191004 16 181 4.8 12.9 0.00 0.00 0.00 41 1016.9
20260503190004 16 259 8.0 16.1 0.00 0.00 0.00 41 1017.0
20260503185004 16 186 6.4 12.9 0.00 0.00 0.00 41 1017.2
20260503184004 16 229 8.0 14.5 0.00 0.00 0.00 43 1017.4
20260503183004 15 240 4.8 14.5 0.00 0.00 0.00 43 1017.3
20260503182005 15 275 4.8 14.5 0.00 0.00 0.00 45 1017.4
20260503181004 15 260 9.7 19.3 0.00 0.00 0.00 45 1017.4
20260503180004 15 223 8.0 14.5 0.00 0.00 0.00 47 1017.5
20260503175003 15 230 4.8 12.9 0.00 0.00 0.00 43 1017.8
20260503174003 15 239 9.7 19.3 0.00 0.00 0.00 44 1017.9
20260503173003 15 243 8.0 12.9 0.00 0.00 0.00 45 1017.9
20260503172003 14 246 3.2 9.7 0.00 0.00 0.00 44 1018.1
20260503171004 14 252 9.7 14.5 0.00 0.00 0.00 45 1018.5
20260503131005 6 256 3.2 4.8 0.00 0.00 0.00 92 1019.2
20260503081005 3 312 0.0 1.6 0.00 0.00 0.00 95 1017.4
20260503072005 3 312 0.0 1.6 0.00 0.00 0.00 94 1017.0
20260503071004 3 312 0.0 1.6 0.00 0.00 0.00 94 1017.0
20260503055004 4 0 0.0 1.6 0.00 0.00 0.00 92 1016.7
20260503054004 5 0 0.0 1.6 0.00 0.00 0.00 91 1016.7
20260503053004 5 0 0.0 1.6 0.00 0.00 0.00 91 1016.7
20260503052004 5 0 0.0 1.6 0.00 0.00 0.00 90 1016.6
20260503051004 5 0 0.0 1.6 0.00 0.00 0.00 90 1016.6
20260503050005 5 0 0.0 0.0 0.00 0.00 0.00 90 1016.6
20260503045004 5 0 0.0 0.0 0.00 0.00 0.00 89 1016.6
20260503044004 5 0 0.0 0.0 0.00 0.00 0.00 88 1016.6
20260503043005 5 0 0.0 1.6 0.00 0.00 0.00 87 1016.6
20260503042004 6 0 0.0 1.6 0.00 0.00 0.00 86 1016.3
20260503035003 6 355 0.0 0.0 0.00 0.00 0.00 84 1016.3
20260503033004 7 351 0.0 0.0 0.00 0.00 0.00 81 1016.3
20260503032004 7 351 0.0 0.0 0.00 0.00 0.00 80 1016.3
20260503030004 7 348 0.0 0.0 0.00 0.00 0.00 78 1016.2
20260503025004 7 346 0.0 0.0 0.00 0.00 0.00 76 1016.2
20260503023004 8 221 0.0 0.0 0.00 0.00 0.00 73 1015.9
20260503021004 9 6 3.2 4.8 0.00 0.00 0.00 68 1016.1
20260503020004 10 227 1.6 3.2 0.00 0.00 0.00 69 1015.7
20260503015004 10 15 1.6 1.6 0.00 0.00 0.00 69 1015.5
20260503013004 10 15 0.0 0.0 0.00 0.00 0.00 70 1015.2
20260503012004 10 15 0.0 0.0 0.00 0.00 0.00 69 1015.2
20260503011004 10 15 0.0 0.0 0.00 0.00 0.00 68 1015.1
20260503010004 10 15 0.0 0.0 0.00 0.00 0.00 66 1015.0
20260503003005 11 15 0.0 4.8 0.00 0.00 0.00 59 1014.7
20260503002004 11 213 1.6 4.8 0.00 0.00 0.00 58 1014.6
20260503001004 11 214 1.6 8.0 0.00 0.00 0.00 58 1014.4
20260503000003 11 225 3.2 8.0 0.00 0.00 0.00 57 1014.2
20260502234004 12 20 1.6 4.8 0.00 0.00 0.00 57 1014.0
20260502233004 12 0 3.2 4.8 0.00 0.00 0.00 56 1014.0
20260502232005 12 269 4.8 8.0 0.00 0.00 0.00 54 1014.0